Regional Weather Roundup
Issued by NWS

Home | Current Version | Previous Version | Graphics & Text | Print | Product List | Glossary On
Versions: 1 2 3 4 5 6 7 8 9 10 11 12 13 14 15 16 17 18 19 20 21 22 23 24 25 26 27 28 29 30 31 32 33 34 35 36 37 38 39 40 41 42 43 44 45 46 47 48 49 50
000
ASUS43 KIND 031659
RWRIN

WEATHER ROUNDUP FOR INDIANA
NATIONAL WEATHER SERVICE INDIANAPOLIS IN
100 PM EDT WED JUN 03 2015

NOTE: "FAIR" INDICATES FEW OR NO CLOUDS BELOW 12,000 FEET WITH NO
SIGNIFICANT WEATHER AND/OR OBSTRUCTIONS TO VISIBILITY.

* - STATION DOES NOT REPORT WEATHER SUCH AS PRECIPITATION OR FOG.

+ - STATION NOT QUALITY CONTROLLED BY THE NATIONAL WEATHER SERVICE.
    USE DATA WITH CAUTION...ESPECIALLY DEWPOINT AND RELATIVE
    HUMIDITY OBSERVATIONS.

INZ001>003-010>013-019-020-031800-
NORTHWEST INDIANA

CITY           SKY/WX    TMP DP  RH WIND       PRES   REMARKS
GARY /AIRPORT/ MOSUNNY   70  52  52 S6        30.06F

$$

LMZ046-743>745-031800-
SOUTHERN LAKE MICHIGAN

STATION/POSITION TIME  TEMP    WIND        PRES    WAVE
                       AIR SEA DIR/SP/G            HT
                 (UTC) (F)     (DEG/KT/KT) (MB)    (FT)
BURNS HARBOR     1600           10/  3/  8 1018.6F
MICHIGAN CITY    1600   61     350/  5/  7   N/A
5NW MICH CITY    1600   57 59   40/  4/  6   N/A     0

$$

INZ004-005-014>016-021>024-031800-
NORTH CENTRAL INDIANA

CITY           SKY/WX    TMP DP  RH WIND       PRES   REMARKS
ELKHART        PTSUNNY   68  54  60 CALM      30.10S
GOSHEN         PTSUNNY   69  55  60 SE8       30.10R
SOUTH BEND     PTSUNNY   69  53  56 S6        30.08F

$$

INZ006>009-017-018-025>027-031800-
NORTHEAST INDIANA

CITY           SKY/WX    TMP DP  RH WIND       PRES   REMARKS
ANGOLA *+      CLOUDY    66  57  72 VRB6      30.11R
FORT WAYNE     PTSUNNY   67  57  70 SE9       30.11S

$$

INZ028-029-035-036-043>045-051>053-031800-
WEST CENTRAL INDIANA

CITY           SKY/WX    TMP DP  RH WIND       PRES   REMARKS
GREENCASTLE +  CLOUDY    63  50  63 CALM      30.10S
LAFAYETTE      PTSUNNY   68  55  63 CALM      30.07F
TERRE HAUTE    CLOUDY    64  54  69 VRB5      30.09S

$$

INZ030>032-037>040-046>048-054>057-064-065-031800-
CENTRAL INDIANA

CITY           SKY/WX    TMP DP  RH WIND       PRES   REMARKS
ANDERSON       CLOUDY    64  50  59 CALM      30.11R
GREENWOOD *+   CLOUDY    63  52  67 E3        30.10R
INDIANAPOLIS   PTSUNNY   67  52  58 E7        30.08R
-EAGLE CREEK   PTSUNNY   66  53  63 CALM      30.08S
KOKOMO *+      PTSUNNY   68  55  64 S3        30.08F
MT COMFORT *+  CLOUDY    64  46  52 CALM      30.10S
SHELBYVILLE    CLOUDY    65  54  67 CALM      30.09R

$$

INZ033-034-041-042-049-050-058-059-031800-
EAST CENTRAL INDIANA

CITY           SKY/WX    TMP DP  RH WIND       PRES   REMARKS
MUNCIE         CLOUDY    66  56  70 VRB3      30.10R

$$

INZ060-061-067>069-081>083-085>088-031800-
SOUTHWEST INDIANA

CITY           SKY/WX    TMP DP  RH WIND       PRES   REMARKS
EVANSVILLE     MOSUNNY   69  55  60 VRB5      30.07S
HUNTINGBURG *+ CLOUDY    64  54  68 E6        30.08S

$$

INZ062-063-066-070>080-084-089>092-031800-
SOUTH CENTRAL AND SOUTHEAST INDIANA

CITY           SKY/WX    TMP DP  RH WIND       PRES   REMARKS
BLOOMINGTON    CLOUDY    62  53  72 SE5       30.09S
MADISON *+     CLOUDY    64  54  68 CALM      30.09S
SEYMOUR +      CLOUDY    66  54  63 CALM      30.08S

$$




USA.gov is the U.S. government's official web portal to all federal, state and local government web resources and services.